TimeCDT,TemperatureF,Dew PointF,Humidity,Sea Level PressureIn,VisibilityMPH,Wind Direction,Wind SpeedMPH,Gust SpeedMPH,PrecipitationIn,Events,Conditions,WindDirDegrees,DateUTC
12:15 AM,31.8,30.0,93,30.11,7.0,North,6.9,-,N/A,,Clear,10,2012-11-03 05:15:00
12:35 AM,32.9,31.5,94,30.11,7.0,North,8.1,-,N/A,,Clear,360,2012-11-03 05:35:00
12:55 AM,32.4,30.7,94,30.12,7.0,North,5.8,-,N/A,,Clear,360,2012-11-03 05:55:00
1:15 AM,32.4,31.1,95,30.12,7.0,North,8.1,-,N/A,,Clear,350,2012-11-03 06:15:00
1:35 AM,32.2,30.6,94,30.13,7.0,NW,6.9,-,N/A,,Clear,320,2012-11-03 06:35:00
1:55 AM,30.7,28.8,92,30.13,7.0,NW,6.9,-,N/A,,Clear,320,2012-11-03 06:55:00
2:15 AM,30.9,29.3,94,30.13,7.0,NW,6.9,-,N/A,,Clear,320,2012-11-03 07:15:00
2:35 AM,30.6,28.8,93,30.13,7.0,NW,6.9,-,N/A,,Clear,320,2012-11-03 07:35:00
2:55 AM,31.1,29.3,93,30.14,7.0,NNW,9.2,-,N/A,,Clear,330,2012-11-03 07:55:00
3:15 AM,31.8,30.0,93,30.15,7.0,NW,8.1,-,N/A,,Clear,320,2012-11-03 08:15:00
3:35 AM,30.7,28.8,92,30.16,7.0,NW,6.9,-,N/A,,Clear,310,2012-11-03 08:35:00
3:55 AM,31.1,29.5,94,30.16,5.0,WNW,6.9,-,N/A,,Clear,300,2012-11-03 08:55:00
4:15 AM,30.6,28.8,93,30.16,5.0,WNW,6.9,-,N/A,,Clear,290,2012-11-03 09:15:00
4:35 AM,31.1,29.3,93,30.16,7.0,West,9.2,-,N/A,,Clear,280,2012-11-03 09:35:00
4:55 AM,31.3,29.3,92,30.17,7.0,West,8.1,-,N/A,,Clear,280,2012-11-03 09:55:00
5:15 AM,32.2,30.6,94,30.18,7.0,WNW,8.1,-,N/A,,Clear,290,2012-11-03 10:15:00
5:35 AM,31.5,29.1,91,30.18,7.0,West,6.9,-,N/A,,Clear,280,2012-11-03 10:35:00
5:55 AM,31.1,29.1,92,30.18,7.0,WNW,5.8,-,N/A,,Clear,290,2012-11-03 10:55:00
6:15 AM,29.7,27.5,92,30.18,7.0,WNW,5.8,-,N/A,,Clear,290,2012-11-03 11:15:00
6:35 AM,31.3,29.1,92,30.18,7.0,WNW,5.8,-,N/A,,Clear,290,2012-11-03 11:35:00
6:55 AM,32.0,30.4,94,30.18,7.0,WNW,5.8,-,N/A,,Clear,300,2012-11-03 11:55:00
7:15 AM,31.1,29.3,93,30.19,7.0,West,4.6,-,N/A,,Clear,280,2012-11-03 12:15:00
7:35 AM,32.5,31.3,95,30.19,7.0,West,5.8,-,N/A,,Clear,260,2012-11-03 12:35:00
7:55 AM,32.5,31.3,95,30.19,7.0,WNW,3.5,-,N/A,,Clear,300,2012-11-03 12:55:00
8:15 AM,31.6,29.7,92,30.19,7.0,Calm,Calm,-,N/A,,Clear,0,2012-11-03 13:15:00
8:35 AM,32.0,30.4,94,30.20,5.0,WNW,4.6,-,N/A,,Clear,300,2012-11-03 13:35:00
8:55 AM,32.4,30.7,94,30.20,5.0,NW,6.9,-,N/A,,Clear,320,2012-11-03 13:55:00
9:15 AM,34.2,32.2,92,30.20,7.0,NW,6.9,-,N/A,,Clear,320,2012-11-03 14:15:00
9:35 AM,37.6,34.9,90,30.21,10.0,NW,9.2,-,N/A,,Clear,320,2012-11-03 14:35:00
9:55 AM,40.8,36.9,86,30.20,10.0,NNW,10.4,-,N/A,,Clear,340,2012-11-03 14:55:00
10:15 AM,43.2,38.3,83,30.20,10.0,NNW,8.1,-,N/A,,Clear,340,2012-11-03 15:15:00
10:35 AM,44.8,38.8,80,30.21,10.0,NW,6.9,-,N/A,,Clear,320,2012-11-03 15:35:00
10:55 AM,46.9,39.2,74,30.21,10.0,NNW,5.8,-,N/A,,Clear,330,2012-11-03 15:55:00
11:15 AM,48.6,39.4,71,30.21,10.0,North,5.8,-,N/A,,Clear,10,2012-11-03 16:15:00
11:35 AM,50.4,39.4,66,30.21,10.0,North,5.8,-,N/A,,Clear,10,2012-11-03 16:35:00
11:55 AM,51.4,39.2,63,30.22,10.0,North,6.9,-,N/A,,Clear,10,2012-11-03 16:55:00
12:15 PM,52.0,39.6,63,30.23,10.0,WNW,3.5,-,N/A,,Clear,290,2012-11-03 17:15:00
12:35 PM,52.5,39.2,61,30.22,10.0,Calm,Calm,-,N/A,,Clear,0,2012-11-03 17:35:00
12:55 PM,54.3,39.2,57,30.22,10.0,NNE,3.5,-,N/A,,Clear,30,2012-11-03 17:55:00
1:15 PM,54.9,39.2,56,30.20,10.0,NE,5.8,-,N/A,,Scattered Clouds,50,2012-11-03 18:15:00
1:35 PM,56.5,38.3,51,30.20,10.0,NNE,5.8,-,N/A,,Mostly Cloudy,20,2012-11-03 18:35:00
1:55 PM,56.1,38.7,52,30.19,10.0,Calm,Calm,-,N/A,,Overcast,0,2012-11-03 18:55:00
2:15 PM,56.7,38.3,50,30.18,10.0,Calm,Calm,-,N/A,,Overcast,0,2012-11-03 19:15:00
2:35 PM,58.3,36.7,45,30.17,10.0,North,3.5,-,N/A,,Mostly Cloudy,360,2012-11-03 19:35:00
2:55 PM,59.0,37.8,45,30.17,10.0,Calm,Calm,-,N/A,,Scattered Clouds,0,2012-11-03 19:55:00
3:15 PM,59.7,37.4,43,30.16,10.0,Calm,Calm,-,N/A,,Scattered Clouds,0,2012-11-03 20:15:00
3:35 PM,59.2,37.0,44,30.16,10.0,Calm,Calm,-,N/A,,Scattered Clouds,0,2012-11-03 20:35:00
3:55 PM,59.9,37.2,43,30.16,10.0,Calm,Calm,-,N/A,,Mostly Cloudy,0,2012-11-03 20:55:00
4:15 PM,60.1,36.9,42,30.15,10.0,NE,3.5,-,N/A,,Scattered Clouds,50,2012-11-03 21:15:00
4:35 PM,59.9,36.7,42,30.15,10.0,North,3.5,-,N/A,,Scattered Clouds,350,2012-11-03 21:35:00
4:55 PM,59.9,36.7,42,30.14,10.0,ENE,4.6,-,N/A,,Scattered Clouds,60,2012-11-03 21:55:00
5:15 PM,59.4,36.5,43,30.14,10.0,ENE,3.5,-,N/A,,Scattered Clouds,70,2012-11-03 22:15:00
5:35 PM,58.3,36.5,44,30.14,10.0,East,4.6,-,N/A,,Clear,100,2012-11-03 22:35:00
5:55 PM,56.1,36.0,47,30.15,10.0,East,4.6,-,N/A,,Clear,100,2012-11-03 22:55:00
6:15 PM,54.7,36.0,49,30.15,10.0,East,6.9,-,N/A,,Clear,80,2012-11-03 23:15:00
6:35 PM,50.7,34.5,54,30.16,10.0,East,6.9,-,N/A,,Clear,90,2012-11-03 23:35:00
6:55 PM,46.4,33.1,60,30.16,10.0,East,6.9,-,N/A,,Clear,90,2012-11-03 23:55:00
7:15 PM,45.1,32.5,61,30.16,10.0,East,9.2,-,N/A,,Clear,100,2012-11-04 00:15:00
7:35 PM,44.4,33.8,66,30.16,10.0,ESE,8.1,-,N/A,,Clear,110,2012-11-04 00:35:00
7:55 PM,44.1,33.8,67,30.16,10.0,SE,10.4,-,N/A,,Clear,130,2012-11-04 00:55:00
8:15 PM,40.8,32.2,71,30.16,10.0,SE,10.4,-,N/A,,Clear,130,2012-11-04 01:15:00
8:35 PM,43.0,33.3,69,30.16,10.0,SE,10.4,-,N/A,,Clear,130,2012-11-04 01:35:00
8:55 PM,41.9,32.9,70,30.16,10.0,ESE,11.5,-,N/A,,Clear,120,2012-11-04 01:55:00
9:15 PM,42.8,33.3,69,30.16,10.0,SE,9.2,-,N/A,,Clear,130,2012-11-04 02:15:00
9:35 PM,43.0,33.4,69,30.16,10.0,SE,9.2,-,N/A,,Clear,140,2012-11-04 02:35:00
9:55 PM,43.9,34.3,69,30.16,10.0,SE,10.4,-,N/A,,Scattered Clouds,140,2012-11-04 02:55:00
10:15 PM,44.8,34.3,67,30.16,10.0,SSE,6.9,-,N/A,,Mostly Cloudy,150,2012-11-04 03:15:00
10:35 PM,44.4,34.3,68,30.16,10.0,SSE,6.9,-,N/A,,Mostly Cloudy,160,2012-11-04 03:35:00
10:55 PM,44.4,34.7,69,30.16,10.0,SSE,8.1,-,N/A,,Scattered Clouds,150,2012-11-04 03:55:00
11:15 PM,43.9,34.9,71,30.16,10.0,SSE,6.9,-,N/A,,Scattered Clouds,150,2012-11-04 04:15:00
11:35 PM,43.0,34.5,72,30.16,10.0,SSE,6.9,-,N/A,,Mostly Cloudy,150,2012-11-04 04:35:00
11:55 PM,42.4,35.1,75,30.16,10.0,SSE,4.6,-,N/A,,Mostly Cloudy,150,2012-11-04 04:55:00